Find Starlink 3151

NORAD ID: 49408 Int'l Des: 2021-104 Owner: SPXS Country: US Constellation: starlink operational
LEOCIRCULAR

Live Position

Loading 3D Globe...

About Starlink 3151

Description loading...

Upcoming Passes

Passes for default location (London). Set your location on the main map for personalized predictions.

Altitude History

Loading altitude history...

Two-Line Element Set

1 49408U 21104A 26125.16668980 .00446923 00000-0 30493-2 0 9992
2 49408 53.2170 316.3214 0001358 63.8688 137.6466 15.72991723 5926
Epoch: May 5, 2026 • Age: 6 hours

Current Status

Altitude 357.8 km
Velocity 7.69 km/s
Sub-Earth Point -25.08°S, 139.97°E
Launch Date Nov 13, 2021
Age 4.4 years
Type internet

Technical Details

Classification Payload
Mass 290.00 kg
Dry Mass 270.00 kg
Total Mass 290.00 kg
Length 0.20 m
Diameter 2.80 m
Span 9.00 m
Shape Box + pan
Manufacturer SPXS
Bus Type Starlink
Phase Status In Orbit
Owner/State SPXS/US

Most Searched